• Join FlightAware (Why Join?)
  • Login
  • US Flag GB Flag 
02:41 EDT


 

Airport Tracker/Info


-or-


 

Live Flight TrackerFlight Track Log ✈ ASQ6151 ✈ 08-May-2013 ✈ KSAV - KORD

Flight Track Log - Related Links

Times and Time Zones

All times are in EDT time to prevent confusion due to time zone crossing. See the ASQ6151 flight status page for this flight to view local times or setup timezone preferences in your user account.

Time Position Orientation Groundspeed Altitude Reporting Facility
EDT Latitude Longitude Course Direction KTS MPH feet Rate Location/Type
18:05 32.1397 -81.2953 North 192 221 3,500  Level Jacksonville Center
18:06 32.2022 -81.2917 North 250 288 4,900 1,740 Climbing Jacksonville Center
18:07 32.2753 -81.2806 North 264 304 7,000 2,100 Climbing Jacksonville Center
18:08 32.3422 -81.2942 350° North 259 298 9,200 2,340 Climbing Jacksonville Center
18:09 32.4214 -81.2856 North 253 291 11,700 1,740 Climbing Jacksonville Center
18:10 32.4922 -81.2644 14° North 271 312 12,700 780 Climbing Jacksonville Center
18:11 32.6414 -81.1500 North  Level FlightAware Approximate
18:11 32.5861 -81.2556 North 306 352 13,300  Level Jacksonville Center
18:12 32.6822 -81.2758 350° North 332 382 14,000 900 Climbing Jacksonville Center
18:13 32.7744 -81.2942 351° North 349 402 15,100 1,140 Climbing Jacksonville Center
18:14 32.8728 -81.3144 350° North 356 410 16,300 1,140 Climbing Jacksonville Center
18:15 32.9733 -81.3350 350° North 356 410 17,400 1,020 Climbing Jacksonville Center
18:16 33.0736 -81.3581 349° North 361 415 18,400 960 Climbing Jacksonville Center
18:17 33.1867 -81.3836 349° North 361 415 19,400 1,020 Climbing Jacksonville Center
18:18 33.2933 -81.4042 351° North 372 428 20,500 1,020 Climbing Jacksonville Center
18:19 33.3958 -81.4297 348° North 379 436 21,500 960 Climbing Jacksonville Center
18:20 33.5047 -81.4503 351° North 379 436 22,500 960 Climbing Jacksonville Center
18:21 33.6072 -81.4761 348° North 379 436 23,500 900 Climbing Jacksonville Center
18:22 33.7161 -81.4992 350° North 379 436 24,400 900 Climbing Jacksonville Center
18:23 33.8186 -81.5228 349° North 379 436 25,400 1,020 Climbing Jacksonville Center
18:24 33.9147 -81.5436 350° North 379 436 26,500 1,080 Climbing Jacksonville Center
18:27 34.1603 -81.6011 349° North 372 428 29,000 1,020 Climbing Atlanta Center
18:28 34.2608 -81.6233 350° North 372 428 30,000 900 Climbing Atlanta Center
18:29 34.3594 -81.6458 349° North 372 428 30,900 960 Climbing Atlanta Center
18:30 34.4622 -81.6681 350° North 372 428 32,000 960 Climbing Atlanta Center
18:31 34.5628 -81.6931 348° North 372 428 32,900 900 Climbing Atlanta Center
18:32 34.6531 -81.7156 348° North 372 428 33,900 600 Climbing Atlanta Center
18:33 34.7556 -81.7381 350° North 378 435 34,200 600 Climbing Atlanta Center
18:34 34.8606 -81.7631 349° North 378 435 35,200 900 Climbing Atlanta Center
18:35 34.9611 -81.7881 348° North 373 429 36,000 360 Climbing Atlanta Center
18:36 35.0658 -81.8108 350° North 373 429 36,000  Level Atlanta Center
18:37 35.1831 -81.8381 349° North 373 429 36,000  Level Atlanta Center
18:38 35.2964 -81.8656 349° North 395 455 36,000  Level Atlanta Center
18:39 35.4117 -81.8906 350° North 412 474 36,000  Level Atlanta Center
18:40 35.5225 -81.9158 349° North 412 474 36,000  Level Atlanta Center
18:41 35.6356 -81.9436 349° North 412 474 36,000  Level Atlanta Center
18:42 35.7447 -81.9689 349° North 407 468 36,000  Level Atlanta Center
18:43 35.8472 -81.9919 350° North 407 468 36,000  Level Atlanta Center
18:44 35.9561 -82.0172 349° North 407 468 36,000  Level Atlanta Center
18:45 36.0669 -82.0403 350° North 402 463 36,000  Level Atlanta Center
18:46 36.1758 -82.0683 348° North 397 457 36,000  Level Atlanta Center
18:47 36.3411 -82.1069 349° North 400 460 36,000  Level Indianapolis Center
18:48 36.4489 -82.1403 346° North 401 461 36,000  Level Indianapolis Center
18:49 36.5383 -82.2242 323° Northwest 403 464 36,000  Level Indianapolis Center
18:50 36.6397 -82.3222 322° Northwest 397 457 36,000  Level Indianapolis Center
18:51 36.7258 -82.4044 323° Northwest 392 451 36,000  Level Indianapolis Center
18:52 36.8125 -82.4872 323° Northwest 395 455 36,000  Level Indianapolis Center
18:53 36.8967 -82.5681 322° Northwest 387 445 36,000  Level Indianapolis Center
18:54 36.9958 -82.6631 323° Northwest 387 445 36,000  Level Indianapolis Center
18:55 37.0794 -82.7444 322° Northwest 389 448 36,000  Level Indianapolis Center
18:56 37.1647 -82.8264 323° Northwest 390 449 36,000  Level Indianapolis Center
18:58 37.2483 -82.9086 322° Northwest 387 445 36,000  Level Indianapolis Center
18:59 37.3458 -83.0050 322° Northwest 384 442 36,000  Level Indianapolis Center
19:00 37.4297 -83.0875 322° Northwest 385 443 36,000  Level Indianapolis Center
19:01 37.5139 -83.1683 323° Northwest 382 440 36,000  Level Indianapolis Center
19:02 37.5969 -83.2517 322° Northwest 380 437 36,000  Level Indianapolis Center
19:03 37.6808 -83.3342 322° Northwest 382 440 36,000  Level Indianapolis Center
19:04 37.7772 -83.4311 322° Northwest 381 438 36,000  Level Indianapolis Center
19:05 37.8611 -83.5144 322° Northwest 383 441 36,000  Level Indianapolis Center
19:06 37.9456 -83.5969 322° Northwest 382 440 36,000  Level Indianapolis Center
19:07 38.0286 -83.6811 321° Northwest 384 442 36,000  Level Indianapolis Center
19:08 38.1125 -83.7650 322° Northwest 384 442 36,000  Level Indianapolis Center
19:09 38.1669 -83.9103 296° West 391 450 36,000  Level Indianapolis Center
19:10 38.2081 -84.0367 293° West 389 448 36,000  Level Indianapolis Center
19:11 38.2475 -84.1647 291° West 389 448 36,000  Level Indianapolis Center
19:12 38.2900 -84.2922 293° West 391 450 36,000  Level Indianapolis Center
19:13 38.3311 -84.4200 292° West 390 449 36,000  Level Indianapolis Center
19:14 38.3800 -84.5678 293° West 389 448 36,000  Level Indianapolis Center
19:15 38.4231 -84.6917 294° West 385 443 36,000  Level Indianapolis Center
19:16 38.4872 -84.7925 309° West 379 436 36,000  Level Indianapolis Center
19:17 38.5864 -84.8336 342° North 375 432 36,000  Level Indianapolis Center
19:18 38.6881 -84.8786 341° North 386 444 36,000  Level Indianapolis Center
19:19 38.7883 -84.9236 341° North 385 443 36,000 -180 Level Indianapolis Center
19:20 38.8911 -84.9664 342° North 388 447 35,700 -720 Descending Indianapolis Center
19:21 39.0144 -85.0211 341° North 393 452 34,600 -1,080 Descending Indianapolis Center
19:22 39.1222 -85.0675 342° North 406 467 33,600 -960 Descending Indianapolis Center
19:23 39.2314 -85.1150 341° North 413 475 32,700 -960 Descending Indianapolis Center
19:24 39.3397 -85.1636 341° North 414 476 31,700 -1,020 Descending Indianapolis Center
19:25 39.4483 -85.2103 342° North 414 476 30,700 -1,020 Descending Indianapolis Center
19:26 39.5797 -85.2700 341° North 418 481 29,600 -1,020 Descending Indianapolis Center
19:27 39.6800 -85.3450 330° Northwest 416 479 28,600 -1,020 Descending Indianapolis Center
19:28 39.7806 -85.4278 328° Northwest 429 494 27,600 -960 Descending Indianapolis Center
19:30 39.8900 -85.4803 340° North 434 499 26,700 -780 Descending Indianapolis Center
19:31 39.9994 -85.5181 345° North 416 479 26,000 -420 Descending Indianapolis Center
19:32 40.1089 -85.5522 347° North 409 471 25,900 -600 Descending Indianapolis Center
19:32 40.2172 -85.5869 346° North 408 470 25,000 -1,020 Descending Chicago Center
19:33 40.3111 -85.6569 330° Northwest 397 457 24,100 -540 Descending Chicago Center
19:34 40.3847 -85.7633 312° West 397 457 24,000 -300 Descending Chicago Center
19:36 40.4569 -85.8650 313° West 387 445 23,500 -720 Descending Chicago Center
19:37 40.5308 -85.9703 313° West 394 453 22,600 -900 Descending Chicago Center
19:38 40.6214 -86.1022 312° West 405 466 21,700 -780 Descending Chicago Center
19:39 40.6922 -86.2047 312° West 398 458 21,000 -360 Descending Chicago Center
19:40 40.7653 -86.3097 313° West 390 449 21,000  Level Chicago Center
19:41 40.8406 -86.4200 312° West 399 459 21,000  Level Chicago Center
19:42 40.9142 -86.5292 312° West 399 459 21,000  Level Chicago Center
19:43 40.9881 -86.6372 312° West 396 456 21,000 -960 Level Chicago Center
19:44 41.0775 -86.7667 313° West 393 452 19,100 -1,800 Descending Chicago Center
19:45 41.1503 -86.8683 314° West 389 448 17,400 -1,680 Descending Chicago Center
19:46 41.2178 -86.9694 312° West 379 436 15,700 -1,800 Descending Chicago Center
19:47 41.2811 -87.0703 310° West 367 422 13,800 -2,220 Descending Chicago Center
19:48 41.3469 -87.1658 313° West 357 411 11,200 -1,620 Descending Chicago Center
19:49 41.4167 -87.2500 318° Northwest 349 402 11,000 -120 Descending Chicago TRACON
19:50 41.4833 -87.3333 317° Northwest 347 399 11,000  Level Chicago TRACON
19:51 41.5667 -87.4167 323° Northwest 349 402 11,000  Level Chicago TRACON
19:51 41.5744 -87.4367 297° West 346 398 11,000 -120 Level Chicago Center
19:52 41.6483 -87.5192 320° Northwest 349 402 10,900  Descending Chicago Center
19:53 41.7219 -87.6019 320° Northwest 351 404 11,000  Climbing Chicago Center
19:54 41.7833 -87.6667 322° Northwest 346 398 10,900 -540 Descending Chicago TRACON
19:55 41.8333 -87.7333 315° West 290 334 10,200 -900 Descending Chicago TRACON
19:56 41.8833 -87.8167 309° West 285 328 9,200 -900 Descending Chicago TRACON
19:57 41.8833 -87.9167 270° West 267 307 8,500 -720 Descending Chicago TRACON
19:58 41.8833 -88.0000 270° West 204 235 7,800 -840 Descending Chicago TRACON
19:59 41.8833 -88.0667 270° West 192 221 6,800 -960 Descending Chicago TRACON
20:00 41.8833 -88.1500 270° West 189 217 5,800 -1,020 Descending Chicago TRACON
20:00 41.8839 -88.1853 271° West 191 220 5,200 -1,020 Descending Chicago Center
20:01 41.8897 -88.2536 277° West 200 230 4,200 -660 Descending Chicago Center
20:02 41.9436 -88.2564 358° North 195 224 3,900 -120 Descending Chicago Center
20:03 41.9675 -88.1778 68° East 201 231 4,000 -420 Climbing Chicago Center
20:04 41.9678 -88.1033 90° East 199 229 3,100 -900 Descending Chicago Center
20:05 41.9667 -88.0833 94° East 181 208 2,900 -960 Descending Chicago TRACON
20:06 41.9667 -88.0333 90° East 169 194 2,000 -900 Descending Chicago TRACON
20:07 41.9667 -87.9667 90° East 130 150 1,200 -780 Descending Chicago TRACON
20:10 41.9667 -87.9000 66° East  Level FlightAware Approximate